Regional Weather Roundup
Issued by NWS

Home | Current Version | Previous Version | Graphics & Text | Print | Product List | Glossary On
Versions: 1 2 3 4 5 6 7 8 9 10 11 12 13 14 15 16 17 18 19 20 21 22 23 24 25 26 27 28 29 30 31 32 33 34 35 36 37 38 39 40 41 42 43 44 45 46 47 48 49 50
000
ASUS43 KMPX 012301
RWRMN
WEATHER ROUNDUP FOR MINNESOTA
NATIONAL WEATHER SERVICE TWIN CITIES/CHANHASSEN MN
600 PM CDT SUN MAY 01 2016


NOTE: "FAIR" INDICATES FEW OR NO CLOUDS BELOW 12,000 FEET WITH NO
SIGNIFICANT WEATHER AND/OR OBSTRUCTIONS TO VISIBILITY. N/A MEANS
CURRENT SKY AND/OR WEATHER CONDITIONS ARE NOT AVAILABLE.

MNZ060>063-068>070-020000-
   Twin Cities Metro

CITY           SKY/WX    TMP DP  RH WIND       PRES   REMARKS
TWIN CITIES    PTSUNNY   63  35  35 N10       30.10S
ST PAUL        MOSUNNY   62  35  36 NE8       30.10S
CRYSTAL        MOSUNNY   63  34  33 NE7G16    30.09F
BLAINE         MOSUNNY   63  34  34 N9        30.10S
EDEN PRAIRIE   MOSUNNY   63  34  33 N9        30.09S
SOUTH ST PAUL  SUNNY     62  32  33 N7        30.09S
LAKE ELMO      FAIR      61  36  39 N6        30.10S
$$
MNZ001>005-007-008-013>017-022>024-027-028-020000-
   Northwest Minnesota

CITY           SKY/WX    TMP DP  RH WIND       PRES   REMARKS
BEMIDJI        SUNNY     60  30  32 N9        30.15S
HALLOCK        SUNNY     66  19  16 CALM      30.14F
ROSEAU         SUNNY     63  32  31 E7        30.17S
WARROAD        SUNNY     57  28  33 E8        30.18F
THIEF RVR FALL SUNNY     63  27  25 CALM      30.17S
CROOKSTON      SUNNY     64  28  25 CALM      30.15F
FOSSTON        SUNNY     64  30  27 N7        30.16F
DETROIT LAKES  SUNNY     63  30  29 NW6       30.15F
MOORHEAD       SUNNY     64  28  25 N8        30.16S
PARK RAPIDS    SUNNY     63  27  25 N6        30.13F
MAHNOMEN       FAIR      61  27  27 NE5       30.15F
$$
MNZ006-009>011-018-025>026-020000-
   North Central Minnesota

CITY           SKY/WX    TMP DP  RH WIND       PRES   REMARKS
BAUDETTE       SUNNY     60  26  27 N10       30.16F
FLAG ISLAND    SUNNY     48  37  66 S7        30.15F
INTL FALLS     SUNNY     60  26  27 E6        30.16S
WASKISH        SUNNY     61  36  39 W8        30.15F
BIG FORK       SUNNY     63  28  27 N5        30.14F
LONGVILLE      SUNNY     61  28  29 W9        30.14S
GRAND RAPIDS   SUNNY     61  27  27 CALM      30.15S
CRANE LAKE     SUNNY     57  27  30 NW3       30.16F
ORR            SUNNY     61  25  25 CALM      30.12F
COOK           SUNNY     61  28  29 CALM      30.14F
WALKER         FAIR      58  30  34 E6        30.15S
$$
MNZ012-019>021-037-020000-
   Northeast Minnesota

CITY           SKY/WX    TMP DP  RH WIND       PRES   REMARKS
DULUTH         MOSUNNY   52  32  46 SE14      30.16S
ELY            SUNNY     57  27  30 NE6       30.13F
HIBBING        MOSUNNY   60  29  30 N6        30.13S
EVELETH        MOSUNNY   61  28  29 N3        30.14S
DULUTH HARBOR  SUNNY     41  37  87 CALM      30.19F
TWO HARBORS    SUNNY     52  39  62 E6        30.16S
SILVER BAY     SUNNY     52  36  54 NE3       30.16S
GRAND MARAIS     N/A     42  35  76 CALM      30.19F
G MARAIS ARPRT SUNNY     50  28  43 SE3       30.17S
$$
MNZ029>031-032-039>041-046>048-054>057-064-020000-
   West Central Minnesota

CITY           SKY/WX    TMP DP  RH WIND       PRES   REMARKS
FERGUS FALLS   SUNNY     63  32  31 NE5       30.12F
WHEATON        SUNNY     64  34  32 N13       30.16F
MORRIS         SUNNY     64  30  27 N9        30.13S
ALEXANDRIA     SUNNY     62  30  29 N7        30.14F
ELBOW LAKE     FAIR      60  32  34 NW9       30.15F
WADENA         SUNNY     61  32  33 N5        30.14S
GLENWOOD       SUNNY     61  27  27 N6        30.14S
APPLETON       SUNNY     64  27  24 NE10      30.13F
BENSON         SUNNY     63  21  20 NE8       30.13F
ORTONVILLE     SUNNY     63  28  27 N8        30.14F
MADISON        SUNNY     61  28  29 NE12      30.14F
WILLMAR        FAIR      61  32  33 NE10G16   30.14F
$$
MNZ033>034-036-042>043-049>051-058-059-020000-
   Central Minnesota

CITY           SKY/WX    TMP DP  RH WIND       PRES   REMARKS
ST CLOUD       MOSUNNY   62  31  31 NE6       30.12S
SAUK CENTRE    FAIR      60  31  34 NE7       30.14S
PAYNESVILLE    SUNNY     60  30  32 N5        30.14S
AITKIN         MOSUNNY   63  25  23 CALM      30.12S
PINE RIVER     SUNNY     61  34  36 CALM      30.17S
BRAINERD       SUNNY     61  29  29 NE5       30.13F
STAPLES        SUNNY     61  27  27 NE3       30.13F
LONG PRAIRIE   FAIR      59  32  36 NW5       30.14S
LITTLE FALLS   SUNNY     59  30  33 E3        30.14S
LITCHFIELD     SUNNY     61  32  33 NE7       30.13S
BUFFALO        SUNNY     61  32  33 N7        30.13S
MAPLE LAKE     MOSUNNY   62  37  38 N7        30.13S
HUTCHINSON       N/A     61  39  44 NE8       30.13
$$
MNZ037-044-045-052-053-020000-
   East Central Minnesota

CITY           SKY/WX    TMP DP  RH WIND       PRES   REMARKS
PRINCETON        N/A     63  34  34 NE6       30.12S
MORA           SUNNY     59  32  36 NE5       30.14S
CAMBRIDGE      SUNNY     63  41  45 N5        30.10S
RUSH CITY      PTSUNNY   62  37  39 N8        30.11S
MOOSE LAKE     SUNNY     57  32  38 NE6       30.13S
HINCKLEY       FAIR      59  37  44 N7        30.13S
CLOQUET        SUNNY     54  30  40 E7        30.16S
MCGREGOR       SUNNY     59  32  36 E7        30.14S
$$
MNZ071>073-080-081-089-090-097-098-020000-
   Southwest Minnesota

CITY           SKY/WX    TMP DP  RH WIND       PRES   REMARKS
MONTEVIDEO     SUNNY     63  30  29 NE10      30.15S
GRANITE FALLS  SUNNY     62  33  32 N10G18    30.15S
CANBY          SUNNY     63  34  34 NE14      30.15F
MARSHALL       MOSUNNY   60  31  33 NE17G23   30.13F
REDWOOD FALLS  MOSUNNY   63  31  30 N10       30.12F
OLIVIA         SUNNY     59  32  36 N10G16    30.12S
PIPESTONE      MOSUNNY   57  28  33 NE13      30.14S
WINDOM         SUNNY     57  36  44 N3        30.12S
WORTHINGTON    MOSUNNY   55  36  48 N15       30.13S
JACKSON        PTSUNNY   55  36  47 N6        30.12S
TRACY          MOSUNNY   59  34  39 N8        30.13S
SLAYTON        MOSUNNY   55  33  44 N10       30.14S
$$
MNZ065>067-074>077-082>085-091>093-020000-
   South Central Minnesota

CITY           SKY/WX    TMP DP  RH WIND       PRES   REMARKS
MANKATO        MOSUNNY   61  36  39 NE9       30.10S
NEW ULM        MOSUNNY   59  36  41 N6        30.11S
ST JAMES       PTSUNNY   54  36  50 NW14      30.12S
FAIRMONT       CLOUDY    55  34  44 N12       30.10S
GLENCOE        MOSUNNY   60  38  45 N7        30.11S
OWATONNA       MOSUNNY   59  34  38 NE7       30.08R
WASECA         MOSUNNY   59  36  41 N12       30.09S
ALBERT LEA     CLOUDY    55  37  50 E3        30.08S
$$
MNZ078>079-086>088-094>096-020000-
   Southeast Minnesota

CITY           SKY/WX    TMP DP  RH WIND       PRES   REMARKS
ROCHESTER      CLOUDY    55  43  63 SE12      30.09R
RED WING       CLOUDY    63  30  29 E6        30.06S
STANTON        MOSUNNY   62  35  36 NE12G20   30.07S
DODGE CENTER   CLOUDY    61  36  39 N12G17    30.07R
WINONA         CLOUDY    59  41  51 S5        30.07R
AUSTIN         CLOUDY    54  41  62 E7        30.08R
PRESTON        DRIZZLE   51  40  67 CALM      30.09R
$$
ABBREVIATIONS USED IN REMARKS
   TC - TEMPERATURES IN CELSIUS
  WCI - WIND CHILL INDEX
   HX - HEAT INDEX
  VSB - VISIBILITY
$$




USA.gov is the U.S. government's official web portal to all federal, state and local government web resources and services.